[[{"header":{"parameterUnit":"m.s-1","parameterCategory":1,"la1":30.2992,"la2":30.254,"lo1":-89.0895,"lo2":-89.0443,"dy":0.0025,"dx":0.0025,"nx":19,"ny":19,"refTime":"2026-04-04T03:00:00:Z","depth":0,"parameterNumber":2,"parameterNumberName":"U-component_of_WINDS"},"data":[0,0,0,-1.1857,-1.1857,-1.1876,-1.1876,-1.1894,-1.1894,0,0,0,0,0,0,0,0,0,0,0,-1.1848,-1.1848,-1.1857,-1.1857,-1.1876,-1.1876,-1.1894,-1.1894,0,0,0,0,0,0,0,0,0,0,0,-1.1848,-1.1848,-1.1848,-1.1857,-1.1876,-1.1876,-1.1894,-1.1882,0,0,0,0,0,0,0,0,0,0,-1.1864,-1.1854,-1.1848,-1.1848,-1.1857,-1.1876,-1.1876,-1.1881,-1.1882,-1.1883,0,-1.1884,0,-1.1889,-1.1895,-1.1895,0,0,0,-1.1859,-1.1853,-1.1861,-1.1848,-1.1858,-1.1876,-1.1868,-1.1882,-1.1883,-1.1885,-1.1884,-1.1885,-1.1889,-1.1895,-1.1895,-1.1895,-1.1894,0,0,-1.1858,-1.185,-1.186,-1.1861,-1.1859,-1.1867,-1.1869,-1.1883,-1.1881,-1.1884,-1.1885,-1.189,-1.1895,-1.1895,-1.1895,-1.1895,0,0,0,-1.1854,-1.1849,-1.1857,-1.1861,-1.1865,-1.1868,-1.1869,-1.188,-1.1884,-1.1885,-1.189,-1.1895,-1.1895,-1.1895,-1.1895,-1.1882,0,0,0,-1.1853,-1.1846,-1.1856,-1.1851,-1.1864,-1.1873,-1.1866,-1.1883,-1.1885,-1.189,-1.1895,-1.1895,-1.1895,-1.1895,-1.1883,-1.1877,0,0,0,-1.1848,-1.1846,-1.1848,-1.1851,-1.1859,-1.1873,-1.1877,-1.1883,-1.1887,-1.1895,-1.1895,-1.1895,-1.1895,-1.1883,-1.1878,-1.1874,0,0,0,-1.184,-1.1836,-1.1847,-1.1845,-1.1858,-1.1866,-1.1877,-1.1882,-1.1888,-1.1895,-1.1895,-1.1895,-1.1883,-1.1879,-1.1875,-1.1869,-1.1867,0,0,-1.183,-1.1834,-1.1833,-1.1844,-1.1847,-1.1863,-1.1864,-1.1876,-1.1884,-1.189,-1.1891,-1.1883,-1.1878,-1.1875,-1.1855,-1.1853,0,0,0,-1.1827,-1.1827,-1.1829,-1.1835,-1.1845,-1.1853,-1.1866,-1.187,-1.1876,-1.1886,-1.1881,-1.1879,-1.1877,-1.1874,-1.1873,-1.1871,-1.1894,-1.1894,-1.1894,-1.18,-1.1812,-1.1811,-1.1825,-1.183,-1.1845,-1.1849,-1.1858,-1.1867,-1.1866,-1.1867,-1.1854,-1.1851,-1.185,-1.1849,-1.1866,-1.1866,-1.1866,-1.1866,-1.1786,-1.1787,-1.1801,-1.1805,-1.1818,-1.1821,-1.1835,-1.1841,-1.1846,-1.1854,-1.1853,-1.186,-1.1847,-1.1846,-1.1865,-1.1865,-1.1865,-1.1866,-1.1866,-1.1769,-1.1771,-1.1778,-1.1788,-1.1794,-1.1808,-1.1812,-1.1823,-1.1833,-1.1832,-1.1835,-1.1835,-1.1836,-1.1833,-1.1833,-1.1833,-1.1833,-1.1833,-1.1833,-1.1748,-1.1756,-1.1759,-1.177,-1.1776,-1.1784,-1.1799,-1.1804,-1.1813,-1.182,-1.182,-1.1829,-1.1844,-1.1847,-1.1832,-1.1832,-1.1832,-1.1832,-1.1832,-1.1727,-1.1734,-1.1738,-1.1744,-1.1758,-1.1764,-1.1778,-1.1788,-1.1794,-1.1795,-1.1806,-1.1815,-1.182,-1.1822,-1.1824,-1.1804,-1.1804,-1.1804,-1.1804,-1.1712,-1.1716,-1.1723,-1.1731,-1.174,-1.1755,-1.1758,-1.177,-1.1784,-1.1788,-1.1793,-1.1797,-1.1799,-1.1803,-1.1805,-1.1807,-1.1783,-1.1783,-1.1783,-1.1699,-1.1705,-1.1706,-1.1721,-1.1734,-1.1745,-1.1748,-1.1756,-1.1773,-1.1782,-1.1791,-1.1792,-1.18,-1.1802,-1.181,-1.1813,-1.1817,0,0]},{"header":{"parameterUnit":"m.s-1","parameterCategory":1,"la1":30.2992,"la2":30.254,"lo1":-89.0895,"lo2":-89.0443,"dy":0.0025,"dx":0.0025,"nx":19,"ny":19,"refTime":"2026-04-04T03:00:00:Z","depth":0,"parameterNumber":3,"parameterNumberName":"V-component_of_WINDS"},"data":[0,0,0,2.812,2.8123,2.8244,2.8244,2.8414,2.8416,0,0,0,0,0,0,0,0,0,0,0,2.8094,2.8096,2.812,2.8123,2.8244,2.8244,2.8414,2.8416,0,0,0,0,0,0,0,0,0,0,0,2.8094,2.8095,2.8097,2.8124,2.8244,2.8244,2.8414,2.8317,0,0,0,0,0,0,0,0,0,0,2.8197,2.8183,2.8095,2.8097,2.8125,2.8244,2.8245,2.8312,2.8323,2.8366,0,2.8408,0,2.8414,2.8428,2.8429,0,0,0,2.8116,2.8174,2.8197,2.8098,2.8126,2.8244,2.8188,2.8318,2.833,2.8381,2.841,2.8416,2.8417,2.843,2.843,2.8702,2.8704,0,0,2.811,2.8122,2.8189,2.8206,2.8188,2.8184,2.8191,2.8325,2.8358,2.841,2.8419,2.842,2.8431,2.8432,2.8701,2.8703,0,0,0,2.8095,2.8117,2.8137,2.8199,2.822,2.8187,2.8196,2.8352,2.8357,2.8421,2.8422,2.8432,2.8434,2.8699,2.8702,2.8793,0,0,0,2.8091,2.8109,2.8135,2.8143,2.8218,2.8287,2.822,2.8348,2.8363,2.8421,2.8432,2.8436,2.8697,2.8701,2.8787,2.8835,0,0,0,2.8083,2.8108,2.8128,2.8144,2.8196,2.8285,2.8298,2.8351,2.8364,2.8429,2.8436,2.8696,2.87,2.8781,2.8826,2.8911,0,0,0,2.8079,2.8209,2.813,2.8276,2.8195,2.834,2.8297,2.8404,2.8471,2.8433,2.8698,2.8701,2.8779,2.882,2.8905,2.8985,2.902,0,0,2.825,2.823,2.8314,2.8247,2.841,2.832,2.8496,2.8546,2.8542,2.8649,2.8655,2.8789,2.8825,2.8909,2.9204,2.9232,0,0,0,2.8373,2.8434,2.8474,2.8538,2.8578,2.8617,2.8638,2.8656,2.8747,2.8599,2.8841,2.8862,2.8911,2.8949,2.8973,2.9014,2.8719,2.8719,2.8718,2.8635,2.862,2.8759,2.8758,2.882,2.884,2.8889,2.8916,2.8885,2.8941,2.8975,2.9155,2.92,2.9218,2.9261,2.9014,2.9014,2.9015,2.9015,2.8886,2.897,2.8922,2.9039,2.9022,2.9121,2.9143,2.9117,2.9206,2.913,2.9172,2.9092,2.9248,2.9285,2.9022,2.902,2.902,2.9019,2.9019,2.9057,2.9095,2.9113,2.9202,2.9272,2.9266,2.9353,2.9334,2.9317,2.9359,2.9391,2.939,2.9387,2.9375,2.9376,2.9376,2.9377,2.9377,2.9378,2.923,2.9247,2.9323,2.9374,2.9411,2.9457,2.9475,2.9511,2.9547,2.9526,2.9526,2.9489,2.9265,2.921,2.9387,2.9386,2.9384,2.9383,2.9383,2.9494,2.943,2.9547,2.9584,2.9641,2.9711,2.9684,2.9759,2.9786,2.9829,2.9781,2.9618,2.9597,2.9578,2.9533,2.9783,2.9783,2.9783,2.9783,2.964,2.9626,2.9741,2.9801,2.9857,2.9844,2.9976,2.999,2.9995,3.001,2.997,2.9907,2.9889,2.9879,2.9854,2.9811,3.0127,3.0127,3.0127,2.9802,2.9792,2.9909,2.9911,2.9954,2.999,3.0114,3.0184,3.0176,3.0141,3.0022,3.0007,2.9905,2.9873,2.9839,2.98,2.9722,0,0]}]]